Location: 22
(39.7117°N, 89.5929°W)
Time: 08:30:20
(UTC-05:00)

Transit 2A - Pass Details

Date: 09 August 2024
Orbit: 590 x 961 km, 66.7° (Epoch: 13 September)

Event Time Altitude Azimuth Distance (km) Brightness Sun altitude
Rises 05:56:10 0° 256° (WSW) 3,295 - -2.5°
Exits shadow 05:56:51 - 259° (WSW) 3,089 8.5 -2.4°
Reaches altitude 10° 05:59:14 10° 274° (W) 2,440 8.1 -1.9°
Maximum altitude 06:03:12 19° 318° (NW) 1,958 7.9 -1.2°
Drops below altitude 10° 06:07:25 10° 3° (N) 2,604 9.1 -0.5°
Sets 06:10:51 0° 20° (NNE) 3,598 10.1 0.1°
